Weather Roundup
Issued by NWS Springfield, MO

Home | Current Version | Previous Version | Text Only | Print | Product List | Glossary On
Versions: 1 2 3 4 5 6 7 8 9 10 11 12 13 14 15 16 17 18 19 20 21 22 23 24 25 26 27 28 29 30 31 32 33 34 35 36 37 38 39 40 41 42 43 44 45 46 47 48 49 50
000
NZUS99 KSGF 071857
HRRSGF

HOURLY WEATHER
NATIONAL WEATHER SERVICE SPRINGFIELD MO
100 PM CST SUN FEB 07 2016

......SGF CWA......

CITY           SKY/WX    TMP DP  RH WIND       PRES   REMARKS
SPRINGFIELD    CLOUDY    49  28  44 NW14G23   30.03F
JOPLIN         MOSUNNY   48  29  47 W13       30.10F
WEST PLAINS    MOSUNNY   51  25  36 W16G28    29.99F
ROLLA          MOSUNNY   49  29  46 W15       29.93F
BRANSON        CLOUDY    50  28  43 W15G26    30.03F

......SURROUNDING SGF CWA......

CITY           SKY/WX    TMP DP  RH WIND       PRES   REMARKS
CHANUTE        CLOUDY    55  21  26 NW14      30.10F
PARSONS        SUNNY     53  28  38 NW9       30.12F
COFFEYVILLE    MOSUNNY   53  27  36 NW13      30.12F
EMPORIA        CLOUDY    50  22  33 NW20G33   30.11F
HARRISON AR    MOSUNNY   53  25  33 SW15G25   30.03F

......KANSAS AND MISSOURI......

CITY           SKY/WX    TMP DP  RH WIND       PRES   REMARKS
KANSAS CTY INT CLOUDY    50  26  39 NW18G24   30.03F
SEDALIA        SUNNY     53  31  42 W16G22    29.99F
ST JOSEPH      MOSUNNY   48  27  44 NW20G30   30.02F
ST LOUIS       CLOUDY    55  28  35 W16       29.90F
WICHITA        MOSUNNY   55  22  27 NW22G28   30.16F
TOPEKA         CLOUDY    51  24  34 W16       30.08F
OLATHE         MOSUNNY   49  20  31 NW16G24   30.04F

......TENNESSEE......

CITY           SKY/WX    TMP DP  RH WIND       PRES   REMARKS
MEMPHIS        NOT AVBL
NASHVILLE      PTSUNNY   56  17  21 SW10      30.07F

......ARKANSAS.......

CITY           SKY/WX    TMP DP  RH WIND       PRES   REMARKS
FAYETTEVILLE   MOSUNNY   51  32  48 W9        30.08F
FT SMITH       MOSUNNY   58  30  34 W13       30.11F
LITTLE ROCK    CLOUDY    59  28  30 SW15G21   30.11F

......OKLAHOMA.......

CITY           SKY/WX    TMP DP  RH WIND       PRES   REMARKS
TULSA          PTSUNNY   51  30  44 N13       30.12F
PONCA CITY     MOSUNNY   52  28  39 N15       30.17S
MCALESTER      SUNNY     59  32  36 W12G21    30.13F
OKLAHOMA CITY  MOSUNNY   56  29  35 N18       30.15F

......IOWA............

CITY           SKY/WX    TMP DP  RH WIND       PRES   REMARKS
DES MOINES     NOT AVBL
QUAD CITIES    SUNNY     47  29  49 W15G25    29.79F

......ILLINOIS........

CITY           SKY/WX    TMP DP  RH WIND       PRES   REMARKS
QUINCY         NOT AVBL
CHICAGO        PTSUNNY   42  30  62 SW18G25   29.72F



USA.gov is the U.S. government's official web portal to all federal, state and local government web resources and services.